Time,TemperatureF,DewpointF,PressureIn,WindDirection,WindDirectionDegrees,WindSpeedMPH,WindSpeedGustMPH,Humidity,HourlyPrecipIn,Conditions,Clouds,dailyrainin,SolarRadiationWatts/m^2,SoftwareType,DateUTC
2013-03-08 00:02:00,31.0,21.0,-100.00,NE,34,2.0,6.0,67,0.00,,,0.00,0.000000,,2013-03-08 05:02:00,
2013-03-08 00:10:00,31.0,21.0,-100.00,ESE,106,1.0,5.0,67,0.00,,,0.00,0.000000,,2013-03-08 05:10:00,
2013-03-08 00:33:00,31.0,21.0,-100.00,ESE,106,1.0,5.0,67,0.00,,,0.00,0.000000,,2013-03-08 05:33:00,
2013-03-08 00:42:00,31.0,21.0,-100.00,ESE,106,1.0,5.0,67,0.00,,,0.00,0.000000,,2013-03-08 05:42:00,
2013-03-08 00:52:00,31.0,21.0,-100.00,ESE,106,1.0,5.0,67,0.00,,,0.00,0.000000,,2013-03-08 05:52:00,
2013-03-08 01:02:00,31.0,21.0,-100.00,ESE,106,1.0,5.0,67,0.00,,,0.00,0.000000,,2013-03-08 06:02:00,
2013-03-08 01:10:00,31.0,21.0,-100.00,NNE,26,3.0,7.0,67,0.00,,,0.00,0.000000,,2013-03-08 06:10:00,
2013-03-08 01:32:00,31.0,21.0,-100.00,NNE,26,3.0,7.0,67,0.00,,,0.00,0.000000,,2013-03-08 06:32:00,
2013-03-08 01:42:00,31.0,21.0,-100.00,NNE,26,3.0,7.0,67,0.00,,,0.00,0.000000,,2013-03-08 06:42:00,
2013-03-08 01:52:00,31.0,21.0,-100.00,NNE,26,3.0,7.0,67,0.00,,,0.00,0.000000,,2013-03-08 06:52:00,
2013-03-08 02:01:00,31.0,21.0,-100.00,NNE,26,3.0,7.0,67,0.00,,,0.00,0.000000,,2013-03-08 07:01:00,
2013-03-08 02:10:00,30.0,21.0,-100.00,NE,53,3.0,9.0,68,0.00,,,0.00,0.000000,,2013-03-08 07:10:00,
2013-03-08 02:32:00,30.0,21.0,-100.00,NE,53,3.0,9.0,68,0.00,,,0.00,0.000000,,2013-03-08 07:32:00,
2013-03-08 02:42:00,30.0,21.0,-100.00,NE,53,3.0,9.0,68,0.00,,,0.00,0.000000,,2013-03-08 07:42:00,
2013-03-08 02:52:00,30.0,21.0,-100.00,NE,53,3.0,9.0,68,0.00,,,0.00,0.000000,,2013-03-08 07:52:00,
2013-03-08 03:01:00,30.0,21.0,-100.00,NE,53,3.0,9.0,68,0.00,,,0.00,0.000000,,2013-03-08 08:01:00,
2013-03-08 03:10:00,30.0,20.0,-100.00,NNE,25,2.0,5.0,66,0.00,,,0.00,0.000000,,2013-03-08 08:10:00,
2013-03-08 03:32:00,30.0,20.0,-100.00,NNE,25,2.0,5.0,66,0.00,,,0.00,0.000000,,2013-03-08 08:32:00,
2013-03-08 03:42:00,30.0,20.0,-100.00,NNE,25,2.0,5.0,66,0.00,,,0.00,0.000000,,2013-03-08 08:42:00,
2013-03-08 03:52:00,30.0,20.0,-100.00,NNE,25,2.0,5.0,66,0.00,,,0.00,0.000000,,2013-03-08 08:52:00,
2013-03-08 04:03:00,30.0,20.0,-100.00,NNE,25,2.0,5.0,66,0.00,,,0.00,0.000000,,2013-03-08 09:03:00,
2013-03-08 04:10:00,29.0,20.0,-100.00,West,259,2.0,5.0,69,0.00,,,0.00,0.000000,,2013-03-08 09:10:00,
2013-03-08 04:32:00,29.0,20.0,-100.00,West,259,2.0,5.0,69,0.00,,,0.00,0.000000,,2013-03-08 09:32:00,
2013-03-08 04:42:00,29.0,20.0,-100.00,West,259,2.0,5.0,69,0.00,,,0.00,0.000000,,2013-03-08 09:42:00,
2013-03-08 04:52:00,29.0,20.0,-100.00,West,259,2.0,5.0,69,0.00,,,0.00,0.000000,,2013-03-08 09:52:00,
2013-03-08 05:01:00,29.0,20.0,-100.00,West,259,2.0,5.0,69,0.00,,,0.00,0.000000,,2013-03-08 10:01:00,
2013-03-08 05:10:00,29.0,20.0,-100.00,West,262,2.0,6.0,69,0.00,,,0.00,0.000000,,2013-03-08 10:10:00,
2013-03-08 05:32:00,29.0,20.0,-100.00,West,262,2.0,6.0,69,0.00,,,0.00,0.000000,,2013-03-08 10:32:00,
2013-03-08 05:42:00,29.0,20.0,-100.00,West,262,2.0,6.0,69,0.00,,,0.00,0.000000,,2013-03-08 10:42:00,
2013-03-08 05:52:00,29.0,20.0,-100.00,West,262,2.0,6.0,69,0.00,,,0.00,0.000000,,2013-03-08 10:52:00,
2013-03-08 06:01:00,29.0,20.0,-100.00,West,262,2.0,6.0,69,0.00,,,0.00,0.000000,,2013-03-08 11:01:00,
2013-03-08 06:10:00,29.0,20.0,-100.00,ENE,63,2.0,5.0,70,0.00,,,0.00,0.000000,,2013-03-08 11:10:00,
2013-03-08 06:32:00,29.0,20.0,-100.00,ENE,63,2.0,5.0,70,0.00,,,0.00,0.000000,,2013-03-08 11:32:00,
2013-03-08 06:42:00,29.0,20.0,-100.00,ENE,63,2.0,5.0,70,0.00,,,0.00,0.000000,,2013-03-08 11:42:00,
2013-03-08 06:52:00,29.0,20.0,-100.00,ENE,63,2.0,5.0,70,0.00,,,0.00,0.000000,,2013-03-08 11:52:00,
2013-03-08 07:02:00,29.0,20.0,-100.00,ENE,63,2.0,5.0,70,0.00,,,0.00,0.000000,,2013-03-08 12:02:00,
2013-03-08 07:10:00,29.0,20.0,-100.00,NNE,17,2.0,6.0,70,0.00,,,0.00,5.000000,,2013-03-08 12:10:00,
2013-03-08 07:32:00,29.0,20.0,-100.00,NNE,17,2.0,6.0,70,0.00,,,0.00,5.000000,,2013-03-08 12:32:00,
2013-03-08 07:43:00,29.0,20.0,-100.00,NNE,17,2.0,6.0,70,0.00,,,0.00,5.000000,,2013-03-08 12:43:00,
2013-03-08 07:53:00,29.0,20.0,-100.00,NNE,17,2.0,6.0,70,0.00,,,0.00,5.000000,,2013-03-08 12:53:00,
2013-03-08 08:02:00,29.0,20.0,-100.00,NNE,17,2.0,6.0,70,0.00,,,0.00,5.000000,,2013-03-08 13:02:00,
2013-03-08 08:10:00,30.0,21.0,-100.00,WSW,246,3.0,6.0,68,0.00,,,-99.99,32.000000,,2013-03-08 13:10:00,
2013-03-08 08:42:00,30.0,21.0,-100.00,WSW,246,3.0,6.0,68,0.00,,,-99.99,32.000000,,2013-03-08 13:42:00,
2013-03-08 08:52:00,30.0,21.0,-100.00,WSW,246,3.0,6.0,68,0.00,,,-99.99,32.000000,,2013-03-08 13:52:00,
2013-03-08 09:03:00,30.0,21.0,-100.00,WSW,246,3.0,6.0,68,0.00,,,-99.99,32.000000,,2013-03-08 14:03:00,
2013-03-08 09:10:00,32.0,22.0,-100.00,North,9,2.0,6.0,65,0.00,,,0.00,78.000000,,2013-03-08 14:10:00,
2013-03-08 09:33:00,32.0,22.0,-100.00,North,9,2.0,6.0,65,0.00,,,0.00,78.000000,,2013-03-08 14:33:00,
2013-03-08 09:42:00,32.0,22.0,-100.00,North,9,2.0,6.0,65,0.00,,,0.00,78.000000,,2013-03-08 14:42:00,
2013-03-08 09:53:00,32.0,22.0,-100.00,North,9,2.0,6.0,65,0.00,,,0.00,78.000000,,2013-03-08 14:53:00,
2013-03-08 10:03:00,32.0,22.0,-100.00,North,9,2.0,6.0,65,0.00,,,0.00,78.000000,,2013-03-08 15:03:00,
2013-03-08 10:10:00,35.0,23.0,-100.00,WNW,284,2.0,7.0,60,0.00,,,0.00,124.000000,,2013-03-08 15:10:00,
2013-03-08 10:32:00,35.0,23.0,-100.00,WNW,284,2.0,7.0,60,0.00,,,0.00,124.000000,,2013-03-08 15:32:00,
2013-03-08 10:43:00,35.0,23.0,-100.00,WNW,284,2.0,7.0,60,0.00,,,0.00,124.000000,,2013-03-08 15:43:00,
2013-03-08 10:53:00,35.0,23.0,-100.00,WNW,284,2.0,7.0,60,0.00,,,0.00,124.000000,,2013-03-08 15:53:00,
2013-03-08 11:02:00,35.0,23.0,-100.00,WNW,284,2.0,7.0,60,0.00,,,0.00,124.000000,,2013-03-08 16:02:00,
2013-03-08 11:10:00,37.0,22.0,-100.00,NE,54,2.0,5.0,55,0.00,,,0.00,148.000000,,2013-03-08 16:10:00,
2013-03-08 11:32:00,37.0,22.0,-100.00,NE,54,2.0,5.0,55,0.00,,,0.00,148.000000,,2013-03-08 16:32:00,
2013-03-08 11:42:00,37.0,22.0,-100.00,NE,54,2.0,5.0,55,0.00,,,0.00,148.000000,,2013-03-08 16:42:00,
2013-03-08 11:52:00,37.0,22.0,-100.00,NE,54,2.0,5.0,55,0.00,,,0.00,148.000000,,2013-03-08 16:52:00,
2013-03-08 12:03:00,37.0,22.0,-100.00,NE,54,2.0,5.0,55,0.00,,,0.00,148.000000,,2013-03-08 17:03:00,
2013-03-08 12:10:00,40.0,22.0,-100.00,NNE,14,2.0,5.0,49,0.00,,,0.00,166.000000,,2013-03-08 17:10:00,
2013-03-08 12:32:00,40.0,22.0,-100.00,NNE,14,2.0,5.0,49,0.00,,,0.00,166.000000,,2013-03-08 17:32:00,
2013-03-08 12:42:00,40.0,22.0,-100.00,NNE,14,2.0,5.0,49,0.00,,,0.00,166.000000,,2013-03-08 17:42:00,
2013-03-08 12:52:00,40.0,22.0,-100.00,NNE,14,2.0,5.0,49,0.00,,,0.00,166.000000,,2013-03-08 17:52:00,
2013-03-08 13:02:00,40.0,22.0,-100.00,NNE,14,2.0,5.0,49,0.00,,,0.00,166.000000,,2013-03-08 18:02:00,
2013-03-08 13:10:00,41.0,22.0,-100.00,NNE,25,2.0,5.0,47,0.00,,,0.00,167.000000,,2013-03-08 18:10:00,
2013-03-08 13:32:00,41.0,22.0,-100.00,NNE,25,2.0,5.0,47,0.00,,,0.00,167.000000,,2013-03-08 18:32:00,
2013-03-08 13:42:00,41.0,22.0,-100.00,NNE,25,2.0,5.0,47,0.00,,,0.00,167.000000,,2013-03-08 18:42:00,
2013-03-08 13:52:00,41.0,22.0,-100.00,NNE,25,2.0,5.0,47,0.00,,,0.00,167.000000,,2013-03-08 18:52:00,
2013-03-08 14:01:00,41.0,22.0,-100.00,NNE,25,2.0,5.0,47,0.00,,,0.00,167.000000,,2013-03-08 19:01:00,
2013-03-08 14:10:00,44.0,24.0,-100.00,North,3,2.0,5.0,45,0.00,,,0.00,193.000000,,2013-03-08 19:10:00,
2013-03-08 14:42:00,44.0,24.0,-100.00,North,3,2.0,5.0,45,0.00,,,0.00,193.000000,,2013-03-08 19:42:00,
2013-03-08 14:52:00,44.0,24.0,-100.00,North,3,2.0,5.0,45,0.00,,,0.00,193.000000,,2013-03-08 19:52:00,
2013-03-08 15:01:00,44.0,24.0,-100.00,North,3,2.0,5.0,45,0.00,,,0.00,193.000000,,2013-03-08 20:01:00,
2013-03-08 15:10:00,43.0,24.0,-100.00,ENE,64,2.0,4.0,46,0.00,,,0.00,134.000000,,2013-03-08 20:10:00,
2013-03-08 15:32:00,43.0,24.0,-100.00,ENE,64,2.0,4.0,46,0.00,,,0.00,134.000000,,2013-03-08 20:32:00,
2013-03-08 15:42:00,43.0,24.0,-100.00,ENE,64,2.0,4.0,46,0.00,,,0.00,134.000000,,2013-03-08 20:42:00,
2013-03-08 15:53:00,43.0,24.0,-100.00,ENE,64,2.0,4.0,46,0.00,,,0.00,134.000000,,2013-03-08 20:53:00,
2013-03-08 16:02:00,43.0,24.0,-100.00,ENE,64,2.0,4.0,46,0.00,,,0.00,134.000000,,2013-03-08 21:02:00,
2013-03-08 16:10:00,43.0,23.0,-100.00,ESE,109,1.0,6.0,44,0.00,,,0.00,94.000000,,2013-03-08 21:10:00,
2013-03-08 16:33:00,43.0,23.0,-100.00,ESE,109,1.0,6.0,44,0.00,,,0.00,94.000000,,2013-03-08 21:33:00,
2013-03-08 16:42:00,43.0,23.0,-100.00,ESE,109,1.0,6.0,44,0.00,,,0.00,94.000000,,2013-03-08 21:42:00,
2013-03-08 16:52:00,43.0,23.0,-100.00,ESE,109,1.0,6.0,44,0.00,,,0.00,94.000000,,2013-03-08 21:52:00,
2013-03-08 17:02:00,43.0,23.0,-100.00,ESE,109,1.0,6.0,44,0.00,,,0.00,94.000000,,2013-03-08 22:02:00,
2013-03-08 17:10:00,42.0,22.0,-100.00,ESE,109,1.0,2.0,44,0.00,,,0.00,71.000000,,2013-03-08 22:10:00,
2013-03-08 17:42:00,42.0,22.0,-100.00,ESE,109,1.0,2.0,44,0.00,,,0.00,71.000000,,2013-03-08 22:42:00,
2013-03-08 17:53:00,42.0,22.0,-100.00,ESE,109,1.0,2.0,44,0.00,,,0.00,71.000000,,2013-03-08 22:53:00,
2013-03-08 18:02:00,42.0,22.0,-100.00,ESE,109,1.0,2.0,44,0.00,,,0.00,71.000000,,2013-03-08 23:02:00,
2013-03-08 18:10:00,35.0,23.0,-100.00,ESE,103,1.0,4.0,61,0.00,,,0.00,8.000000,,2013-03-08 23:10:00,
2013-03-08 18:42:00,35.0,23.0,-100.00,ESE,103,1.0,4.0,61,0.00,,,0.00,8.000000,,2013-03-08 23:42:00,
2013-03-08 18:53:00,35.0,23.0,-100.00,ESE,103,1.0,4.0,61,0.00,,,0.00,8.000000,,2013-03-08 23:53:00,
2013-03-08 19:02:00,35.0,23.0,-100.00,ESE,103,1.0,4.0,61,0.00,,,0.00,8.000000,,2013-03-09 00:02:00,
2013-03-08 19:10:00,32.0,24.0,-100.00,East,90,2.0,4.0,73,0.00,,,0.00,0.000000,,2013-03-09 00:10:00,
2013-03-08 19:42:00,32.0,24.0,-100.00,East,90,2.0,4.0,73,0.00,,,0.00,0.000000,,2013-03-09 00:42:00,
2013-03-08 19:52:00,32.0,24.0,-100.00,East,90,2.0,4.0,73,0.00,,,0.00,0.000000,,2013-03-09 00:52:00,
2013-03-08 20:02:00,32.0,24.0,-100.00,East,90,2.0,4.0,73,0.00,,,0.00,0.000000,,2013-03-09 01:02:00,
2013-03-08 22:10:00,26.0,20.0,-100.00,ENE,76,1.0,2.0,79,-99.99,,,0.00,0.000000,,2013-03-09 03:10:00,
2013-03-08 22:32:00,26.0,20.0,-100.00,ENE,76,1.0,2.0,79,-99.99,,,0.00,0.000000,,2013-03-09 03:32:00,
2013-03-08 22:42:00,26.0,20.0,-100.00,ENE,76,1.0,2.0,79,-99.99,,,0.00,0.000000,,2013-03-09 03:42:00,
2013-03-08 22:52:00,26.0,20.0,-100.00,ENE,76,1.0,2.0,79,-99.99,,,0.00,0.000000,,2013-03-09 03:52:00,
2013-03-08 23:01:00,26.0,20.0,-100.00,ENE,76,1.0,2.0,79,-99.99,,,0.00,0.000000,,2013-03-09 04:01:00,
2013-03-08 23:10:00,26.0,21.0,-100.00,East,95,2.0,3.0,81,0.00,,,0.00,0.000000,,2013-03-09 04:10:00,
2013-03-08 23:32:00,26.0,21.0,-100.00,East,95,2.0,3.0,81,0.00,,,0.00,0.000000,,2013-03-09 04:32:00,
2013-03-08 23:42:00,26.0,21.0,-100.00,East,95,2.0,3.0,81,0.00,,,0.00,0.000000,,2013-03-09 04:42:00,
2013-03-08 23:52:00,26.0,21.0,-100.00,East,95,2.0,3.0,81,0.00,,,0.00,0.000000,,2013-03-09 04:52:00,